This is the latest recevied weather packets stored in our database for station/object KC1DMA. If no packets are shown the sender has not sent any weather packets the latest 10 day(s).
| Time | Temp. | Humidity | Pressure | Rain* | Wind** | Luminosity | Snow |
|---|---|---|---|---|---|---|---|
| 1777468236 | 11.11° C | 67% | 1017.8 hPa | - | - | 295 W/m² | - |
| 1777467933 | 11.11° C | 67% | 1017.7 hPa | - | - | 295 W/m² | - |
| 1777467628 | 11.11° C | 67% | 1017.7 hPa | - | - | 295 W/m² | - |
| 1777467323 | 11.11° C | 67% | 1017.6 hPa | - | - | 295 W/m² | - |
| 1777467020 | 11.11° C | 67% | 1018 hPa | - | - | 295 W/m² | - |
| 1777466717 | 11.11° C | 67% | 1017.6 hPa | - | - | 295 W/m² | - |
| 1777466415 | 11.11° C | 67% | 1017.8 hPa | - | - | 295 W/m² | - |
| 1777466110 | 11.11° C | 67% | 1018 hPa | - | - | 295 W/m² | - |
| 1777465807 | 11.11° C | 67% | 1017.9 hPa | - | - | 295 W/m² | - |
| 1777465503 | 11.11° C | 67% | 1018 hPa | - | - | 295 W/m² | - |
| 1777465201 | 11.11° C | 67% | 1017.9 hPa | - | - | 295 W/m² | - |
| 1777464897 | 10.56° C | 68% | 1018.3 hPa | - | - | 273 W/m² | - |
| 1777464592 | 10.56° C | 68% | 1018.2 hPa | - | - | 273 W/m² | - |
| 1777464289 | 10° C | 69% | 1018.6 hPa | - | - | 282 W/m² | - |
| 1777463984 | 10° C | 69% | 1018.4 hPa | - | - | 282 W/m² | - |
| 1777463680 | 10° C | 69% | 1018.6 hPa | - | - | 282 W/m² | - |
| 1777463374 | 10.56° C | 68% | 1018.8 hPa | - | - | 264 W/m² | - |
| 1777463071 | 10.56° C | 70% | 1019 hPa | - | - | 149 W/m² | - |
| 1777462767 | 10.56° C | 70% | 1019 hPa | - | - | 149 W/m² | - |
| 1777462462 | 10.56° C | 70% | 1018.6 hPa | - | - | 149 W/m² | - |
| 1777462159 | 10.56° C | 71% | 1018.6 hPa | - | - | 146 W/m² | - |
| 1777461855 | 10° C | 73% | 1018.6 hPa | - | - | 129 W/m² | - |
| 1777461552 | 10° C | 73% | 1018.7 hPa | - | - | 118 W/m² | - |
| 1777461248 | 9.44° C | 76% | 1018.7 hPa | - | - | 108 W/m² | - |
| 1777460943 | 8.89° C | 77% | 1019 hPa | - | - | 87 W/m² | - |
* Rain since midnight (hover to see other rain measurements)
** Current wind speed in m/s (hover to see current wind gust speed)